Persoonlijke zone
Imprimable
Challenges > Delhalle - Amay, 15/09/2019, BEL - Le Semi Vert d'Amay
Rapportenlijst > Delhalle - Semi - Resultaat
Zoek: Bladzijde: [1]
71 Inputs
 
Klachten worden niet meer geaccepteerd. Resultaten zijn definitief.
PlaatsNrNaamLeef.IOCLigaClubWerkelijkeTijdTkmGem.ScrPtsGemeente
1.4619CONIGLIO GIUSEPPE51BEL1:30:201:30:214:17 14.019999SOUVRET
2.6874XHROUET ALAIN50BEL1:34:161:34:164:29 13.4317945
3.6869GRAINDORGE ERIC57BELSER ATHL1:35:241:35:254:32 13.2724925
4.583VAN RAEMDONCK GILLES53BELRIWARIWA1:35:311:35:344:32 13.2525922LASNE
5.4597RODRIQUE EMMANUEL52BELFOULÉES DU PLAISIR1:37:141:37:244:37 13.0028900ANTHEIT
6.122SCHALKWIJK BENOIT59BELFLEUTRAVEL2RUN1:38:581:39:064:42 12.7836873WANFERCEE BAULET
7.342LOMBART FRÉDÉRIC52BELGAG1:39:301:39:304:43 12.7239864SAUVENIÈRE
8.294HASSOUTE EL MOUSTAFA53BELCSFMYSTERE1:39:271:39:314:43 12.7240863FOREST
9.779LAUREYS PIERRE58BELANTILOB1:40:521:40:574:48 12.5445843COURT-SAINT-ETIENNE
10.6809VENERUCCI GIUSEPPE50BEL1:40:571:41:204:49 12.4947840
11.677PAULUS PHILIPPE58BELESM1:41:501:41:524:50 12.4351826MONT-SUR-MARCHIENNE
12.983CULLOP PAUL58BELENJAMBEE1:42:101:42:124:51 12.3953821BRUXELLES
13.675VAUDOISEY PASCAL57FRARCBMYSTERE1:42:221:42:224:52 12.3754818UCCLE
14.4616FABRY RICHEL59BEL1:43:221:43:274:55 12.2461800AMPSIN
15.284MARTHOZ PASCAL50BEL1:46:351:46:355:04 11.8877751BRUXELLES
16.4589DENDAL DIDIER56BEL1:47:121:47:175:06 11.8081741LIÈGE
17.841SALVATO DOMENICO56ITACSFMYSTERE1:48:161:48:245:09 11.6884727BRUXELLES
18.77MEZIANI MOHAND52BELCSFMYSTERE1:49:121:49:215:11 11.5892710SAINT-GILLES
19.58HENRY ANDRE59BELRCB1:49:361:49:365:12 11.5594704LA HULPE
20.463DEMIN MICHEL51BELTEAM MARCEL1:49:311:49:445:12 11.5496703SOVET
21.558D'ANGELO AMERINO57ITAZATAC CHARLEROI1:49:421:49:475:13 11.5398699FARCIENNES
22.425DE GRAVE OLIVIER54BELCSFMYSTERE1:49:461:49:495:13 11.5399697UCCLE
23.6802JACOBS FABIEN52BEL1:50:381:50:445:15 11.43103685
24.608ROSSI STEPHANE53BELSCBUTG1:50:471:50:495:16 11.43104682ROBERTVILLE
25.404TILBURGS FRANK52BELAVN1:51:041:51:125:17 11.39108675MEER
26.264SCAILLET VINCENT50BELHASTRAIL SINGLETRACK1:51:471:51:595:19 11.31112664WEILLEN
27.6777PIROM FRED50BELTRAIL 4 FUN1:51:531:52:215:20 11.27113662
28.4629CUCCURU JEAN.MARC54BELATHLET1:52:221:52:225:20 11.27114657TAVIER
29.685LETELLIER JEAN-LUC54BELMYSTERE1:52:441:52:475:21 11.23118649LIMELETTE
30.6792UHODA JEAN-FRANCOIS53BEL1:52:361:52:495:21 11.22119649
31.498HEYNDRICKX JAN57BELHAMURABI1:53:121:53:205:23 11.17121642BERTEM
32.4609ROUHART DANIEL52BEL1:52:561:53:255:23 11.16122644CRISNEE
33.395FOHAL JEAN-LUC54BELETC1:53:431:54:025:25 11.10127631MESLIN-L'EVÊQUE
34.6859GILLAIN MICHEL54BEL1:53:501:54:265:26 11.06130627
35.507MARLOYE LUC55BELJE COURS A INCOURT1:54:561:55:225:29 10.97138609OPPREBAIS
36.4627BAURIN FREDERIC50BEL1:55:081:55:265:29 10.97139606THUIN
37.212GALAIS JEAN-MICHEL53BEL1:55:481:56:005:30 10.92144594BRUXELLES
38.6855GODFROID ALAIN54BELPAT'FOLLE1:55:521:56:035:30 10.91146592
39.4608DELHEZ CLAUDE59BELSERATH1:56:201:56:565:33 10.83152581BONCELLES
40.4576CORNÉLIS ¨PATRICE56BEL1:56:441:57:005:33 10.82153576PIÉTREBAIS
41.767HOUDMONT ARNAUD52BELAMARANTE COACH IMAGE1:57:231:57:275:34 10.78155569MONT-SAINT-GUIBERT
42.6820GODFRAIND CHRISTIAN54BEL1:58:111:58:225:37 10.70162554
43.216LANCKRIET ALEX54BELESM1:58:501:59:325:40 10.59173538GOUY-LEZ-PIÉTON
44.4552MARCHANDISE PIERRE56BEL2:00:102:00:445:44 10.49178520BONCELLES
45.4614OGER PIERRE50BELLES ÉOLES2:00:352:00:455:44 10.49179516VILLERS-LE-BOUILLET
46.4625DEVILLET MICHEL55BEL2:03:182:03:445:52 10.23197473ANDENNE
47.513DUFAUX RAPHAEL52BELJCPMF FLV2:04:222:04:595:56 10.13200461FLOREFFE
48.6848DRADIN DENIS53BELORWAL2:04:282:05:045:56 10.12201459
49.812BATISTIC PATRICK55BELRONVAU2:06:442:07:006:02 9.97212429NALINNES
50.4599VAN DE VYVERE POL52BEL2:07:092:07:256:03 9.94214423COUTHUIN
51.6797LAPRELLE MICHEL50BEL2:08:192:08:246:06 9.86217410
52.4590DELATTE OLIVIER55BELCSF MYSTERES2:09:392:09:596:10 9.74222394ANDERLECHT
53.4612BOTQUIN HUGUES53BEL2:09:552:10:036:10 9.74223391ATH
54.708MOUYART PHILIPPE52BEL2:10:412:11:066:13 9.66231376THY-LE-CHÂTEAU
55.429DENEFFE PHILIPPE58BELJC HOUYET2:11:272:11:546:16 9.60238363HOUYET
56.32JACQUEMIN PATRICK54BEL2:12:112:12:166:17 9.57239356MOXHE
57.611DUMORTIER CHRISTOPHE57BELSPTWAVRE2:12:252:12:316:17 9.55240353LOUVAIN-LA-NEUVE
58.6865LARENGHIEN FABRICE53BEL2:12:122:12:406:18 9.54242353
59.4583LIFRANGE MARC-OLIVIER50BELENJAMBEE2:13:372:14:106:22 9.44250333BELGIQUE
60.4565PAULISSEN RICHARD52BEL2:14:272:14:416:23 9.40256321WANZE
61.240FONTAINE BERNARD56BELKURISTO2:15:482:16:126:28 9.30265301WOLUWÉ-SAINT-PIERRE
62.6861PIQUARD BEN52BELJAMES2:16:492:17:156:31 9.22274284
63.6833DEWAR VINCENT53BEL2:17:192:18:036:33 9.17279275
64.470CRUSNAIRE MARC57BELRONVAU2:18:032:18:456:35 9.12284264OTTIGNIES
65.6868MORSA HENRI57BEL2:20:362:21:096:42 8.97293235
66.458WOUTERS WILLIAM51BELRONVAU2:22:572:23:406:49 8.81303207PERWEZ
67.258PINON WILLIAM58BELENJAMBEE2:26:562:27:307:00 8.58308172KRAAINEM
68.91GEERAERTS JOS59BELMYSTERE2:29:082:29:417:06 8.46314150BUIZINGEN
69.80ADANS ALAIN57BELMYSTERE2:29:082:29:427:06 8.46315149COGNELÉE
70.4VANDERBECK YVES51BELRIWARONVAU2:57:002:57:008:24 7.153364MALONNE
71.4592KEUKELEIRE DICKY58BELTEMPO3:17:523:17:579:23 6.403391BRUGGE
DNF: abandon; DSQ: disqualifié; Vitesse en km/h
Bladzijde: [1]